sat.trackr.live / text

‹ back to catalog

SENTINEL-3A

NORAD 41335 · 2016-011A

PAYLOAD ACTIVE UNKNOWN

§ Identity

Operator
Country
ESA
Launch date
2016-02-16
Launch site
PLMSC
Launch vehicle
Mass (kg)
RCS (m²)
3.98

Purposes: earth_obs

External: N2YO · Heavens-Above · Gunter

§ Orbital elements

Epoch: 2026-05-25T03:27:07.250688Z

Period
100.93 min
Inclination
98.6255°
Eccentricity
0.0001206
Mean motion
14.26738792 rev/d
Perigee alt
801.8 km
Apogee alt
803.5 km
Semi-major
7,180.8 km
B*
4.9654e-5
RAAN
212.8570°
Arg perigee
108.4176°
Mean anomaly
251.7135°
Rev number
53,477

§ Raw data

SENTINEL-3A1 41335U 16011A   26145.14383392  .00000077  00000+0  49654-4 0  99912 41335  98.6255 212.8570 0001206 108.4176 251.7135 14.26738792534773

JSON: /api/v1/satellites/41335 · /tle

For live sub-satellite position, see the globe view (requires WebGL).

§ Visibility from observer

Set your observer location to see the next 7 days of passes ≥ 10°. The values pass through the URL so the page stays shareable.

No JS? Fill the form by hand. The geolocation button needs JavaScript.